www.pogodaiklimat.ru

Погода и климат >> Архив погоды >> Россия >> Хабаровский край >> Байдуков


ПОГОДА в Байдукове

  • Прогноз погоды в Байдукове
  • Монитор погоды в Байдукове

АРХИВ ПОГОДЫ в Байдукове

Время (UTC), дата Ветер
(напр.,м/с)
 
Видим.   Явления Облачность Т
(С)
Тd
(С)
f
(%)
Тe
(С)
Тes
(С)
Комфортность P
(гПа)
Po
(гПа)
Тmin
(С)
Tmax
(С)
R
(мм)
R24
(мм)
S
(см)
21 14.07 Ю 7-10
{12}
10 км 9/8 600 м
[Sc Ac cuf]
+16.0 +13.9 87 +14 +15 1012.9 1011.9 +15.3
03 15.07 Ю 12-14
{15}
50 км 4/0
[Cs]
+19.7 +15.0 74 +21 +21 комфорт 1012.4 1011.5
09 15.07 Ю 11-16
{16}
50 км 9/0
[Ac lent Cc]
+20.0 +15.0 73 +21 +21 комфорт 1011.3 1010.7 +20.5
15 15.07 Ю 10-13
{14}
20 км 3/0
[Ac cuf]
+17.7 +14.9 84 +16 +16 1011.5 1010.6
21 15.07 Ю 8-10
{12}
10 км 1/1 600 м
[Cu Sc]
+17.4 +14.3 82 +16 +17 1010.8 1009.8 +16.9
03 16.07 Ю 11-14
{14}
10 км 3/3 600 м
[Cu med, cong]
+19.4 +15.8 80 +20 +20 1010.2 1009.2
09 16.07 Ю 10-13
{14}
20 км 4/0
[Ac cast Cc]
+18.6 +15.7 83 +18 +18 1008.6 1008.0 +19.7
15 16.07 Ю 9-12
{15}
20 км ясно +17.4 +15.7 90 +16 +16 1008.6 1008.0
21 16.07 Ю 9-12
{13}
10 км 8/8 600 м
[Cu Sc]
+17.1 +15.4 90 +16 +16 1007.4 1006.4 +16.6
03 17.07 Ю 11-15
{15}
10 км 10/10 600 м
[Cu med, cong]
+18.7 +15.8 83 +19 +19 1006.5 1005.6
09 17.07 Ю 11-15
{16}
20 км 10/10 600 м
[Cb cap]
+17.7 +15.7 88 +16 +16 1005.8 1004.8 +19.0
15 17.07 Ю 10-13
{15}
20 км 10/10 600 м
[Cb cap]
+17.0 +15.6 91 +15 +15 1005.3 1004.4
21 17.07 Ю 10-12
{13}
20 км 6/3 600 м
[Sc Ac trans Cc]
+16.9 +15.0 89 +15 +15 1004.6 1003.7 +16.3
03 18.07 Ю 11-14
{15}
50 км 8/5 600 м
[Cu Sc Ac trans]
+19.4 +15.9 80 +20 +20 1004.0 1003.1
09 18.07 Ю 13-17
{17}
10 км 10/10 600 м
[Cb cap]
+17.9 +16.1 89 +16 +16 1004.6 1004.0 +19.7
15 18.07 Ю 11-14
{15}
10 км 6/0
[Ac cuf]
+17.8 +15.9 89 +16 +16 1003.5 1002.6
21 18.07 Ю 6
{12}
10 км 10/8 600 м
[Cb cap As trans]
+17.1 +15.3 89 +16 +16 1004.2 1003.3 +16.7
03 19.07 Ю 8-11
{11}
50 км 4/3 600 м
[Cu med, cong As op Ci ing]
+19.8 +15.8 78 +21 +23 комфорт 1005.0 1004.1
09 19.07 Ю 9-12
{14}
20 км 10/10 600 м
[Sc]
+18.1 +16.3 89 +17 +17 1007.3 1006.7 +19.8
15 19.07 Ю 8-10
{11}
10 км 10/6 600 м
[Sc Ac cuf]
+18.0 +16.5 91 +17 +17 1008.7 1007.8
21 19.07 СЗ 4 500 м туман ?/? +14.6 +13.9 96 +13 +13 1011.8 1010.8 +14.4
03 20.07 З 4 10 км 10 баллов +16.5 +14.7 89 +16 +16 1015.3 1014.7
09 20.07 С 1 10 км 10/0
[As op]
+16.4 +14.8 90 +17 +17 1015.3 1014.7 +17.9
15 20.07 Ю 7 20 км 10 баллов +17.9 +16.8 93 +17 +17 1013.9 1013.3
21 20.07 СЗ 4
{11}
2000 м 10/10 100 м
[St]
+15.4 +14.3 93 +14 +14 1011.7 1010.8 +15.4
03 21.07 СЗ 9-13
{14}
10 км слаб. морось {дождь} 10/10 100 м
[St]
+12.3 +11.5 95 +9 +9 1013.0 1012.0
09 21.07 С 5 10 км {дождь, морось} 10/10 100 м
[St]
+14.3 +13.0 92 +13 +13 1015.3 1014.7 +16.1
15 21.07 В 5 10 км 10 баллов +14.2 +11.9 86 +12 +12 1016.6 1016.0

 

Местоположение метеостанции Байдуков (Хабаровский край, Россия): широта 53.30 долгота 141.40 высота над уровнем моря 5 м.

В архиве по умолчанию представлена погода в Байдукове за последнюю неделю. Архивные данные за месяц целиком и за предыдущие месяцы, начиная с января 2011 года, Вы можете получить, выбрав интересующий диапазон дат из раскрывающегося списка и нажав кнопку "Ввод!".


*Определитесь, кто Вы:
робот инопланетянин человек

Внимание! Время в таблицах - всемирное. Для получения местного времени необходимо прибавить поправку, которая равна 10 ч.

Смотрите также архив погоды в соседних городах и на ближайших метеорологических станциях:

Погода в Николаевск-на-Амуре (Хабаровский край, Россия) (50 км)
Погода в Джаоре (Хабаровский край, Россия) (71 км)
Погода в Москальво (Сахалинская область, Россия) (79 км)
Погода в Оха (Сахалинская область, Россия) (102 км)
Погода в Литке (Хабаровский край, Россия) (102 км)
Погода в Одопту (Сахалинская область, Россия) (120 км)
Погода в Погибях (Сахалинская область, Россия) (121 км)
Погода в Богородском (Хабаровский край, Россия) (122 км)
Погода в Ныврово (Сахалинская область, Россия) (139 км)
Погода в Вале (Сахалинская область, Россия) (152 км)

Пояснения к столбцам:

Ветер - указаны скорость ветра в м/с - средняя за 10 мин, порывы в срок и между сроками (в фигурных скобках) и направление, откуда дует ветер: С - северный, СВ - северо-восточный, В - восточный, ЮВ - юго-восточный, Ю - южный, ЮЗ - юго-западный, З - западный, СЗ - северо-западный.
Видимость - горизонтальная дальность видимости в метрах или километрах. При видимости от 1 до 10 км при отсутствии осадков обычно наблюдается дымка, при ухудшении видимости до 1 км и менее - туман. В сухую погоду видимость может ухудшаться дымом, пылью или мглою.
Явления - указаны атмосферные явления, наблюдавшиеся в срок или в последний час перед сроком; фигурными скобками обозначены явления, наблюдавшиеся между сроками (за 1-3 часа до срока); квадратными скобками обозначены град или гололедные отложения с указанием их диаметра в мм.
Облачность - указаны через наклонную черту общая и нижняя облачность в баллах и высота нижней границы облаков в метрах; квадратными скобками обозначены формы облаков: Ci - перистые, Cs - перисто-слоистые, Cc - перисто-кучевые, Ac - высококучевые, As - высокослоистые, Sc - слоисто-кучевые, Ns - слоисто-дождевые, Cu - кучевые, Cb - кучево-дождевые. Подробнее классификацию облаков см. в Атласе облаков (PDF).
T - Температура воздуха - температура, измеренная на высоте 2 м над землей.
Td - Температура точки росы - температура, при понижении до которой содержащийся в воздухе водяной пар достигнет насыщения.
f - Относительная влажность воздуха - влажноcть воздуха, измеренная на высоте 2 м над землей.
Te - Эффективная температура - температура, которую ощущает одетый по сезону человек в тени. Характеристика душности погоды. При расчете учитывается влияние влажности воздуха и скорости ветра на теплоощущения человека.
Tes - Эффективная температура на солнце - температура, которую ощущает человек, с поправкой на солнечный нагрев. Характеристика знойности погоды. Зависит от высоты солнца над горизонтом, облачности и скорости ветра. Ночью, в пасмурную погоду, а также при ветре 12 м/с и более поправка равна нулю.
P - Атмосферное давление - приведенное к уровню моря атмосферное давление.
Po - Атмосферное давление - измеренное на уровне метеостанции атмосферное давление.
Tmin - Минимальная температура - минимум температуры воздуха на высоте 2 м над землей.
Tmax - Максимальная температура - максимум температуры воздуха на высоте 2 м над землей.
R - Количество осадков - Количество выпавших осадков за период времени, мм. При наведении курсора мыши на число - период времени, за который выпало указанное количество осадков.
R24 - Количество осадков - Количество выпавших осадков за 24 часа, мм.
S - Снежный покров - Высота снежного покрова, см. При наведении курсора мыши на число - состояние снежного покрова и степень покрытия местности в баллах.